STARLINK-2123 (47401 NORAD) Tracking and Keplerian Element Data
This shows tracking and keplerian element data for the satellite.
Feedback or suggestion? Click here.
Element | Value |
Catalog | 47401 |
Name | STARLINK-2123 |
Epoch Orbit | 177 |
Epoch Day | 101.91668981 |
Epoch Year | 2021 |
RAAN | 171.9569 |
Inclination | 53.0536 |
Eccentricity | 0.0004244 |
Argument of Perigee | 2.4838 |
Mean Anonmoly | 152.2475 |
Mean Motion | 15.62819658 |
Decay Rate | -0.00091063 |
L1 | 1 47401U 21005BE 21101.91668981 -.00091063 00000-0 -99671-3 0 9993 |
L2 | 2 47401 53.0536 171.9569 0004244 2.4838 152.2475 15.62819658 1779 |
Live tracking and technical data element details for STARLINK-2123 (NORAD 47401). STARLINK-2123 can be tracked NOW for your location showing map with azimuth and elevation plus other details from your city location.
Track the satellite on the map from your city or location and see movement details for azimuth, elevation, latitude, longitude, range, height, and movement on the map or in text.
IsCatalogInMostPopularTable: catalog: 47401, numindb: 16
Update: records affected: 1
GetName: 47401 STARLINK-2123
Hit Count: updated at: Tue, 13 Apr 2021 05:03:52 GMT